Lake Okeechobee Weather Center

Moon Phase Calendar



Lake Okeechobee Water Level
Online Cameras

 


      

Current Conditions in Pahokee
10/25/2020 11:43:50 PM

76°F
Feels Like 79
Clouds
Humidity
100%
Pressure
29.94"
Wind
11.9 mph (SE)
Dew Point
76°F
UV Index
7/10 (High)
Visibility
6 mi

Hourly Forecast

Date & Time Sun, Oct 25
11:00 PM
Mon, Oct 26
12:00 AM
Mon, Oct 26
1:00 AM
Mon, Oct 26
2:00 AM
Mon, Oct 26
3:00 AM
Mon, Oct 26
4:00 AM
Mon, Oct 26
5:00 AM
Mon, Oct 26
6:00 AM
Mon, Oct 26
7:00 AM
Mon, Oct 26
8:00 AM
Mon, Oct 26
9:00 AM
Mon, Oct 26
10:00 AM
Mon, Oct 26
11:00 AM
Mon, Oct 26
12:00 PM
Mon, Oct 26
1:00 PM
Mon, Oct 26
2:00 PM
Mon, Oct 26
3:00 PM
Mon, Oct 26
4:00 PM
Mon, Oct 26
5:00 PM
Mon, Oct 26
6:00 PM
Mon, Oct 26
7:00 PM
Mon, Oct 26
8:00 PM
Mon, Oct 26
9:00 PM
Mon, Oct 26
10:00 PM
Mon, Oct 26
11:00 PM
Tue, Oct 27
12:00 AM
Tue, Oct 27
1:00 AM
Tue, Oct 27
2:00 AM
Tue, Oct 27
3:00 AM
Tue, Oct 27
4:00 AM
Tue, Oct 27
5:00 AM
Tue, Oct 27
6:00 AM
Tue, Oct 27
7:00 AM
Tue, Oct 27
8:00 AM
Tue, Oct 27
9:00 AM
Tue, Oct 27
10:00 AM
Tue, Oct 27
11:00 AM
Tue, Oct 27
12:00 PM
Tue, Oct 27
1:00 PM
Tue, Oct 27
2:00 PM
Tue, Oct 27
3:00 PM
Tue, Oct 27
4:00 PM
Tue, Oct 27
5:00 PM
Tue, Oct 27
6:00 PM
Tue, Oct 27
7:00 PM
Tue, Oct 27
8:00 PM
Tue, Oct 27
9:00 PM
Tue, Oct 27
10:00 PM
Condition
Rain

Clouds

Clouds

Clouds

Clouds

Clouds

Clouds

Clouds

Clouds

Clouds

Clear

Clear

Clear

Rain

Rain

Rain

Rain

Rain

Rain

Rain

Rain

Rain

Clear

Clouds

Clouds

Clouds

Clouds

Clouds

Clouds

Clouds

Clouds

Clouds

Clouds

Clouds

Clouds

Clouds

Clouds

Clouds

Clouds

Clouds

Clouds

Clouds

Clouds

Clouds

Clouds

Clouds

Clouds

Clouds
Temperature 76°F78°F79°F79°F79°F79°F79°F79°F79°F79°F80°F81°F82°F83°F84°F84°F84°F83°F83°F82°F81°F81°F80°F80°F80°F80°F80°F80°F80°F79°F79°F79°F79°F79°F80°F81°F83°F84°F85°F85°F86°F86°F85°F84°F82°F81°F80°F80°F
Feels Like 80°F81°F81°F81°F81°F82°F81°F81°F81°F82°F84°F86°F88°F91°F92°F91°F89°F87°F86°F86°F85°F84°F83°F82°F82°F83°F83°F84°F84°F83°F82°F82°F82°F82°F82°F84°F86°F87°F88°F89°F89°F89°F87°F85°F83°F82°F82°F82°F
Cloudiness 75%81%82%82%61%31%20%15%13%11%0%0%0%0%0%2%54%50%33%26%21%18%8%24%43%54%60%66%96%75%76%56%45%38%19%40%58%55%48%56%41%58%62%48%39%33%94%97%
Visibility 6 mi6 mi6 mi6 mi6 mi6 mi6 mi6 mi6 mi6 mi6 mi6 mi6 mi6 mi6 mi6 mi6 mi6 mi6 mi6 mi6 mi6 mi6 mi6 mi6 mi6 mi6 mi6 mi6 mi6 mi6 mi6 mi6 mi6 mi6 mi6 mi6 mi6 mi6 mi6 mi6 mi6 mi6 mi6 mi6 mi6 mi6 mi6 mi
Precipitation 97%77%87%83%6%6%3%3%0%0%6%6%13%25%49%58%88%91%95%95%95%97%35%23%12%7%6%6%0%0%0%0%0%0%2%0%0%0%0%0%7%3%3%3%3%1%0%0%
Humidity 100%90%85%81%80%79%79%80%82%83%81%79%77%76%73%71%72%75%77%78%80%80%80%79%79%79%79%79%79%80%80%81%81%81%80%78%74%70%68%66%65%65%65%70%74%76%77%78%
Dew Point 76°F74°F74°F73°F72°F72°F72°F72°F73°F73°F74°F74°F75°F75°F74°F73°F74°F75°F75°F75°F74°F74°F74°F73°F73°F73°F73°F73°F73°F72°F72°F72°F72°F73°F73°F74°F74°F73°F73°F73°F73°F73°F72°F73°F73°F73°F73°F73°F
Pressure 29.94"29.94"29.91"29.91"29.91"29.91"29.88"29.91"29.91"29.94"29.97"30"30"30"30"29.97"29.94"29.94"29.94"29.94"29.97"29.97"30"30"30.03"30.03"30"30"30"30"30"30"30.03"30.03"30.06"30.06"30.06"30.06"30.03"30"30"30"30"30"30"30.03"30.03"30.06"
Wind Speed 10.4 mph11.9 mph12.8 mph12 mph11.5 mph10.4 mph10.8 mph11.2 mph11.2 mph9.9 mph9.1 mph8.4 mph6.4 mph4.4 mph1.9 mph3.1 mph8.3 mph11 mph12.2 mph10.8 mph11 mph11 mph12.7 mph13.2 mph12.2 mph11.4 mph10.2 mph8.6 mph7.9 mph8.4 mph9.3 mph9.8 mph10.2 mph11.1 mph12.6 mph12.8 mph11.2 mph10.2 mph10.2 mph10.1 mph10 mph10 mph11.9 mph13.1 mph13.8 mph13.1 mph12.6 mph12.7 mph
Wind
Direction
141°
SE
142°
SE
150°
SSE
153°
SSE
150°
SSE
153°
SSE
149°
SSE
145°
SE
137°
SE
129°
SE
121°
ESE
118°
ESE
116°
ESE
115°
ESE
119°
ESE
144°
SE
146°
SE
134°
SE
128°
SE
135°
SE
135°
SE
130°
SE
128°
SE
131°
SE
132°
SE
130°
SE
128°
SE
124°
SE
114°
ESE
109°
ESE
112°
ESE
112°
ESE
115°
ESE
108°
ESE
106°
ESE
106°
ESE
111°
ESE
114°
ESE
111°
ESE
108°
ESE
107°
ESE
109°
ESE
110°
ESE
99°
E
91°
E
97°
E
101°
E
101°
E

Daily Forecast

Date High Low Precip. Humidity
Today
Oct 25

Rain
82 °F
76 °F
100%
82%
Monday
Oct 26

Rain
84 °F
77 °F
97%
71%
Tuesday
Oct 27

Rain
85 °F
79 °F
20%
66%
Wednesday
Oct 28

Rain
84 °F
78 °F
20%
69%
Thursday
Oct 29

Rain
84 °F
79 °F
24%
74%
Friday
Oct 30

Rain
84 °F
77 °F
61%
68%
Saturday
Oct 31

Rain
80 °F
76 °F
54%
74%
Sunday
Nov 1

Rain
82 °F
76 °F
39%
72%
Monday
Nov 2

Rain
82 °F
77 °F
93%
74%
Tuesday
Nov 3

Rain
82 °F
76 °F
74%
70%
Wednesday
Nov 4

Rain
82 °F
76 °F
100%
74%
Thursday
Nov 5

Rain
82 °F
77 °F
99%
72%
Friday
Nov 6

Rain
84 °F
78 °F
84%
72%
Saturday
Nov 7

Rain
84 °F
78 °F
56%
69%
Sunday
Nov 8

Rain
81 °F
73 °F
99%
70%
Monday
Nov 9

Rain
78 °F
73 °F
100%
83%


Temperature 8-14 Day Outlook



Precipitation 8-14 Day Outlook




Quick Links
Lake Okeechobee News
Lake Okeechobee Photos
Lake Okeechobee Videos




About Us
Contact Us
Site Map
Search Site
Advertise With Us
   
Okeechobee.USLakes.info
THE LAKE OKEECHOBEE WEBSITE

Copyright 2020, Lakes Online
Privacy    |    Legal